| time (UTC) | temp C | wind direction | speed KPH | gust KPH | rain 1hr cm | rain 24hr cm | rain mn cm | humidity % | barometer mb |
| 20260505010518 | 21 | 201 | 8.0 | 19.3 | 0.00 | 0.00 | 0.00 | 53 | 1005.7 |
| 20260505010057 | 21 | 207 | 8.0 | 20.9 | 0.00 | 0.00 | 0.00 | 53 | 1005.8 |
| 20260505005520 | 21 | 190 | 8.0 | 20.9 | 0.00 | 0.00 | 0.00 | 52 | 1005.7 |
| 20260505005023 | 21 | 200 | 9.7 | 19.3 | 0.00 | 0.00 | 0.00 | 52 | 1005.7 |
| 20260505004535 | 21 | 196 | 8.0 | 19.3 | 0.00 | 0.00 | 0.00 | 51 | 1005.7 |
| 20260505004019 | 21 | 183 | 8.0 | 19.3 | 0.00 | 0.00 | 0.00 | 51 | 1005.7 |
| 20260505003519 | 21 | 172 | 9.7 | 24.1 | 0.00 | 0.00 | 0.00 | 51 | 1005.7 |
| 20260505003046 | 21 | 205 | 9.7 | 30.6 | 0.00 | 0.00 | 0.00 | 50 | 1005.8 |
| 20260505002520 | 22 | 255 | 9.7 | 30.6 | 0.00 | 0.00 | 0.00 | 49 | 1005.8 |
| 20260505002019 | 22 | 251 | 12.9 | 30.6 | 0.00 | 0.00 | 0.00 | 49 | 1005.8 |
| 20260505001539 | 22 | 187 | 9.7 | 25.7 | 0.00 | 0.00 | 0.00 | 48 | 1005.9 |
| 20260505001023 | 22 | 205 | 8.0 | 27.4 | 0.00 | 0.00 | 0.00 | 47 | 1005.9 |
| 20260505000520 | 22 | 219 | 11.3 | 35.4 | 0.00 | 0.00 | 0.00 | 47 | 1005.9 |
| 20260505000043 | 22 | 234 | 14.5 | 35.4 | 0.00 | 0.00 | 0.00 | 46 | 1005.9 |
| 20260504235519 | 22 | 196 | 14.5 | 35.4 | 0.00 | 0.00 | 0.00 | 46 | 1006.0 |
| 20260504235019 | 22 | 184 | 16.1 | 35.4 | 0.00 | 0.00 | 0.00 | 46 | 1006.1 |
| 20260504234534 | 22 | 238 | 16.1 | 35.4 | 0.00 | 0.00 | 0.00 | 46 | 1006.1 |
| 20260504234018 | 22 | 202 | 14.5 | 32.2 | 0.00 | 0.00 | 0.00 | 47 | 1006.1 |
| 20260504233518 | 22 | 205 | 14.5 | 30.6 | 0.00 | 0.00 | 0.00 | 50 | 1006.1 |
| 20260504233041 | 22 | 292 | 9.7 | 25.7 | 0.00 | 0.00 | 0.00 | 52 | 1006.0 |
| 20260504232519 | 22 | 177 | 9.7 | 17.7 | 0.00 | 0.00 | 0.00 | 53 | 1006.1 |
| 20260504232018 | 22 | 144 | 6.4 | 14.5 | 0.00 | 0.00 | 0.00 | 53 | 1006.1 |
| 20260504231535 | 22 | 175 | 6.4 | 14.5 | 0.00 | 0.00 | 0.00 | 53 | 1006.1 |
| 20260504231038 | 22 | 178 | 6.4 | 14.5 | 0.00 | 0.00 | 0.00 | 52 | 1006.1 |
| 20260504230521 | 22 | 153 | 6.4 | 12.9 | 0.00 | 0.00 | 0.00 | 52 | 1006.3 |
| 20260504230034 | 22 | 198 | 4.8 | 16.1 | 0.00 | 0.00 | 0.00 | 52 | 1006.2 |
| 20260504225520 | 22 | 184 | 6.4 | 16.1 | 0.00 | 0.00 | 0.00 | 52 | 1006.4 |
| 20260504225019 | 22 | 191 | 6.4 | 20.9 | 0.00 | 0.00 | 0.00 | 52 | 1006.4 |
| 20260504224550 | 22 | 196 | 8.0 | 20.9 | 0.00 | 0.00 | 0.00 | 51 | 1006.6 |
| 20260504224019 | 22 | 161 | 8.0 | 17.7 | 0.00 | 0.00 | 0.00 | 51 | 1006.6 |
| 20260504223519 | 22 | 229 | 8.0 | 17.7 | 0.00 | 0.00 | 0.00 | 50 | 1006.8 |
| 20260504223036 | 23 | 236 | 4.8 | 16.1 | 0.00 | 0.00 | 0.00 | 51 | 1006.8 |
| 20260504222519 | 23 | 191 | 6.4 | 19.3 | 0.00 | 0.00 | 0.00 | 52 | 1006.7 |
| 20260504222018 | 22 | 236 | 8.0 | 19.3 | 0.00 | 0.00 | 0.00 | 52 | 1006.7 |
| 20260504221534 | 22 | 219 | 6.4 | 19.3 | 0.00 | 0.00 | 0.00 | 52 | 1006.7 |
| 20260504221020 | 22 | 221 | 6.4 | 19.3 | 0.00 | 0.00 | 0.00 | 53 | 1006.7 |
| 20260504220518 | 22 | 169 | 6.4 | 17.7 | 0.00 | 0.00 | 0.00 | 53 | 1006.8 |
| 20260504220035 | 22 | 205 | 6.4 | 17.7 | 0.00 | 0.00 | 0.00 | 53 | 1006.7 |
| 20260504215522 | 22 | 175 | 8.0 | 17.7 | 0.00 | 0.00 | 0.00 | 53 | 1006.7 |
| 20260504215017 | 22 | 210 | 8.0 | 17.7 | 0.00 | 0.00 | 0.00 | 53 | 1006.8 |
| 20260504214543 | 22 | 216 | 8.0 | 25.7 | 0.00 | 0.00 | 0.00 | 52 | 1007.1 |
| 20260504214019 | 22 | 221 | 6.4 | 25.7 | 0.00 | 0.00 | 0.00 | 53 | 1007.2 |
| 20260504213519 | 22 | 236 | 12.9 | 25.7 | 0.00 | 0.00 | 0.00 | 51 | 1007.3 |
| 20260504213036 | 22 | 205 | 9.7 | 27.4 | 0.00 | 0.00 | 0.00 | 52 | 1007.2 |
| 20260504212519 | 22 | 178 | 11.3 | 27.4 | 0.00 | 0.00 | 0.00 | 52 | 1007.3 |
| 20260504212019 | 22 | 226 | 9.7 | 27.4 | 0.00 | 0.00 | 0.00 | 53 | 1007.3 |
| 20260504211537 | 22 | 213 | 8.0 | 27.4 | 0.00 | 0.00 | 0.00 | 54 | 1007.3 |
| 20260504211018 | 22 | 196 | 14.5 | 32.2 | 0.00 | 0.00 | 0.00 | 53 | 1007.5 |
| 20260504210522 | 22 | 219 | 12.9 | 32.2 | 0.00 | 0.00 | 0.00 | 53 | 1007.5 |
| 20260504210052 | 21 | 153 | 12.9 | 27.4 | 0.00 | 0.00 | 0.00 | 56 | 1007.6 |
| 20260504205519 | 21 | 250 | 4.8 | 27.4 | 0.00 | 0.00 | 0.00 | 58 | 1007.7 |
| 20260504205022 | 21 | 221 | 11.3 | 25.7 | 0.00 | 0.00 | 0.00 | 57 | 1007.6 |
| 20260504204531 | 21 | 209 | 4.8 | 19.3 | 0.00 | 0.00 | 0.00 | 58 | 1007.8 |
| 20260504204018 | 21 | 195 | 8.0 | 19.3 | 0.00 | 0.00 | 0.00 | 57 | 1007.9 |
| 20260504203518 | 21 | 232 | 4.8 | 20.9 | 0.00 | 0.00 | 0.00 | 59 | 1008.1 |
| 20260504203043 | 21 | 244 | 6.4 | 20.9 | 0.00 | 0.00 | 0.00 | 60 | 1008.2 |
| 20260504202519 | 20 | 273 | 3.2 | 20.9 | 0.00 | 0.00 | 0.00 | 62 | 1008.3 |
| 20260504202018 | 20 | 171 | 6.4 | 16.1 | 0.00 | 0.00 | 0.00 | 65 | 1008.2 |
| 20260504201539 | 20 | 269 | 4.8 | 19.3 | 0.00 | 0.00 | 0.00 | 67 | 1008.3 |
| 20260504201016 | 19 | 210 | 8.0 | 19.3 | 0.00 | 0.00 | 0.00 | 67 | 1008.3 |
| 20260504200519 | 19 | 243 | 8.0 | 14.5 | 0.00 | 0.00 | 0.00 | 69 | 1008.2 |
| 20260504200049 | 18 | 182 | 6.4 | 14.5 | 0.00 | 0.00 | 0.00 | 70 | 1008.2 |
| 20260504195520 | 18 | 171 | 4.8 | 17.7 | 0.00 | 0.00 | 0.00 | 71 | 1008.3 |
| 20260504195021 | 18 | 239 | 6.4 | 17.7 | 0.00 | 0.00 | 0.00 | 70 | 1008.2 |
| 20260504194536 | 18 | 182 | 6.4 | 17.7 | 0.00 | 0.00 | 0.00 | 71 | 1008.4 |
| 20260504194022 | 18 | 203 | 6.4 | 12.9 | 0.00 | 0.00 | 0.00 | 71 | 1008.6 |
| 20260504193524 | 18 | 205 | 4.8 | 16.1 | 0.00 | 0.00 | 0.00 | 70 | 1008.5 |
| 20260504193043 | 18 | 93 | 3.2 | 16.1 | 0.00 | 0.00 | 0.00 | 70 | 1008.4 |
| 20260504192521 | 18 | 225 | 3.2 | 16.1 | 0.00 | 0.00 | 0.00 | 69 | 1009.0 |
| 20260504192019 | 18 | 236 | 8.0 | 16.1 | 0.00 | 0.00 | 0.00 | 69 | 1009.0 |
| 20260504191539 | 18 | 183 | 4.8 | 25.7 | 0.00 | 0.00 | 0.00 | 68 | 1008.8 |
| 20260504191023 | 18 | 160 | 4.8 | 25.7 | 0.00 | 0.00 | 0.00 | 65 | 1008.8 |
| 20260504190522 | 19 | 169 | 12.9 | 29.0 | 0.00 | 0.00 | 0.00 | 62 | 1009.6 |
| 20260504190040 | 19 | 200 | 12.9 | 29.0 | 0.00 | 0.00 | 0.00 | 60 | 1009.9 |
| 20260504185518 | 20 | 250 | 9.7 | 22.5 | 0.00 | 0.00 | 0.00 | 60 | 1009.6 |
| 20260504185022 | 20 | 232 | 9.7 | 20.9 | 0.00 | 0.00 | 0.00 | 59 | 1009.4 |
| 20260504184539 | 20 | 196 | 11.3 | 22.5 | 0.00 | 0.00 | 0.00 | 59 | 1009.6 |
| 20260504184022 | 20 | 226 | 9.7 | 25.7 | 0.00 | 0.00 | 0.00 | 59 | 1009.2 |
| 20260504183522 | 20 | 244 | 11.3 | 33.8 | 0.00 | 0.00 | 0.00 | 59 | 1009.3 |
| 20260504183037 | 21 | 250 | 12.9 | 33.8 | 0.00 | 0.00 | 0.00 | 57 | 1009.1 |
| 20260504182521 | 21 | 178 | 11.3 | 33.8 | 0.00 | 0.00 | 0.00 | 55 | 1008.7 |
| 20260504182021 | 21 | 255 | 11.3 | 45.1 | 0.00 | 0.00 | 0.00 | 56 | 1008.6 |
| 20260504181540 | 21 | 198 | 19.3 | 45.1 | 0.00 | 0.00 | 0.00 | 56 | 1008.6 |
| 20260504181024 | 21 | 169 | 11.3 | 27.4 | 0.00 | 0.00 | 0.00 | 58 | 1008.6 |
| 20260504180518 | 21 | 234 | 12.9 | 20.9 | 0.00 | 0.00 | 0.00 | 59 | 1008.3 |
| 20260504180039 | 21 | 120 | 9.7 | 33.8 | 0.00 | 0.00 | 0.00 | 59 | 1008.3 |
| 20260504175519 | 21 | 257 | 14.5 | 33.8 | 0.00 | 0.00 | 0.00 | 57 | 1008.2 |
| 20260504175019 | 21 | 239 | 9.7 | 29.0 | 0.00 | 0.00 | 0.00 | 59 | 1008.1 |
| 20260504174536 | 20 | 187 | 16.1 | 37.0 | 0.00 | 0.00 | 0.00 | 59 | 1008.2 |
| 20260504174021 | 20 | 187 | 12.9 | 37.0 | 0.00 | 0.00 | 0.00 | 60 | 1008.3 |
| 20260504173522 | 20 | 187 | 12.9 | 25.7 | 0.00 | 0.00 | 0.00 | 60 | 1008.4 |
| 20260504173035 | 20 | 175 | 9.7 | 29.0 | 0.00 | 0.00 | 0.00 | 59 | 1008.3 |
| 20260504172523 | 20 | 148 | 14.5 | 29.0 | 0.00 | 0.00 | 0.00 | 58 | 1008.5 |
| 20260504172022 | 20 | 190 | 9.7 | 27.4 | 0.00 | 0.00 | 0.00 | 59 | 1008.5 |
| 20260504171535 | 20 | 177 | 11.3 | 22.5 | 0.00 | 0.00 | 0.00 | 62 | 1008.6 |
| 20260504171022 | 19 | 193 | 11.3 | 22.5 | 0.00 | 0.00 | 0.00 | 63 | 1008.6 |
| 20260504170522 | 18 | 213 | 9.7 | 20.9 | 0.00 | 0.00 | 0.00 | 64 | 1008.7 |
| 20260504151021 | 17 | 153 | 8.0 | 19.3 | 0.00 | 0.00 | 0.00 | 64 | 1009.4 |
| 20260504150519 | 17 | 165 | 6.4 | 24.1 | 0.00 | 0.00 | 0.00 | 63 | 1009.3 |
| 20260504141022 | 15 | 210 | 14.5 | 27.4 | 0.00 | 0.00 | 0.00 | 65 | 1009.6 |
| 20260504140521 | 15 | 207 | 14.5 | 27.4 | 0.00 | 0.00 | 0.00 | 65 | 1009.7 |
| 20260504130520 | 12 | 198 | 9.7 | 22.5 | 0.00 | 0.00 | 0.00 | 73 | 1009.9 |
| 20260504110519 | 9 | 175 | 4.8 | 14.5 | 0.00 | 0.00 | 0.00 | 72 | 1009.8 |
| 20260504100525 | 9 | 191 | 6.4 | 16.1 | 0.00 | 0.00 | 0.00 | 71 | 1010.2 |
| 20260504081539 | 9 | 188 | 4.8 | 11.3 | 0.00 | 0.00 | 0.00 | 70 | 1011.0 |
| 20260504081021 | 9 | 205 | 4.8 | 12.9 | 0.00 | 0.00 | 0.00 | 70 | 1011.0 |
| 20260504080522 | 9 | 178 | 4.8 | 12.9 | 0.00 | 0.00 | 0.00 | 70 | 1011.0 |
| 20260504050518 | 11 | 187 | 8.0 | 19.3 | 0.00 | 0.00 | 0.00 | 62 | 1012.5 |
| 20260504045519 | 11 | 160 | 8.0 | 24.1 | 0.00 | 0.00 | 0.00 | 61 | 1012.4 |
| 20260504045025 | 11 | 171 | 8.0 | 20.9 | 0.00 | 0.00 | 0.00 | 61 | 1012.6 |
| 20260504044537 | 11 | 182 | 9.7 | 20.9 | 0.00 | 0.00 | 0.00 | 60 | 1012.5 |
| 20260504044021 | 11 | 195 | 8.0 | 19.3 | 0.00 | 0.00 | 0.00 | 60 | 1012.5 |
| 20260504043519 | 11 | 172 | 9.7 | 20.9 | 0.00 | 0.00 | 0.00 | 60 | 1012.6 |
| 20260504043046 | 11 | 178 | 8.0 | 20.9 | 0.00 | 0.00 | 0.00 | 59 | 1012.7 |
| 20260504042519 | 11 | 169 | 9.7 | 20.9 | 0.00 | 0.00 | 0.00 | 59 | 1012.7 |
| 20260504042019 | 11 | 177 | 8.0 | 20.9 | 0.00 | 0.00 | 0.00 | 59 | 1012.7 |
| 20260504041536 | 11 | 182 | 9.7 | 20.9 | 0.00 | 0.00 | 0.00 | 59 | 1012.7 |
| 20260504041018 | 11 | 195 | 6.4 | 19.3 | 0.00 | 0.00 | 0.00 | 58 | 1012.8 |
| 20260504040518 | 11 | 208 | 8.0 | 22.5 | 0.00 | 0.00 | 0.00 | 58 | 1012.9 |
| 20260504040039 | 12 | 178 | 9.7 | 22.5 | 0.00 | 0.00 | 0.00 | 58 | 1013.0 |
| 20260504035518 | 12 | 175 | 9.7 | 22.5 | 0.00 | 0.00 | 0.00 | 58 | 1013.0 |
| 20260504035019 | 12 | 178 | 9.7 | 22.5 | 0.00 | 0.00 | 0.00 | 57 | 1013.0 |
| 20260504034545 | 12 | 157 | 9.7 | 19.3 | 0.00 | 0.00 | 0.00 | 57 | 1013.0 |
| 20260504034022 | 12 | 171 | 8.0 | 19.3 | 0.00 | 0.00 | 0.00 | 57 | 1013.1 |
| 20260504033519 | 12 | 147 | 8.0 | 19.3 | 0.00 | 0.00 | 0.00 | 56 | 1013.1 |
| 20260504033036 | 12 | 203 | 9.7 | 17.7 | 0.00 | 0.00 | 0.00 | 56 | 1013.2 |
| 20260504032519 | 12 | 195 | 8.0 | 19.3 | 0.00 | 0.00 | 0.00 | 56 | 1013.1 |
| 20260504032019 | 12 | 175 | 8.0 | 19.3 | 0.00 | 0.00 | 0.00 | 55 | 1013.1 |
| 20260504031537 | 12 | 198 | 6.4 | 17.7 | 0.00 | 0.00 | 0.00 | 55 | 1013.2 |
| 20260504031018 | 12 | 162 | 6.4 | 16.1 | 0.00 | 0.00 | 0.00 | 55 | 1013.2 |
| 20260504030518 | 12 | 153 | 4.8 | 14.5 | 0.00 | 0.00 | 0.00 | 55 | 1013.3 |
| 20260504030046 | 12 | 184 | 4.8 | 11.3 | 0.00 | 0.00 | 0.00 | 55 | 1013.3 |
| 20260504025518 | 12 | 192 | 4.8 | 12.9 | 0.00 | 0.00 | 0.00 | 55 | 1013.4 |
| 20260504025021 | 12 | 217 | 6.4 | 12.9 | 0.00 | 0.00 | 0.00 | 55 | 1013.5 |
| 20260504024536 | 12 | 131 | 4.8 | 12.9 | 0.00 | 0.00 | 0.00 | 54 | 1013.4 |
| 20260504024019 | 12 | 0 | 3.2 | 11.3 | 0.00 | 0.00 | 0.00 | 54 | 1013.6 |
| 20260504023519 | 12 | 171 | 3.2 | 9.7 | 0.00 | 0.00 | 0.00 | 54 | 1013.6 |
| 20260504023038 | 12 | 193 | 4.8 | 11.3 | 0.00 | 0.00 | 0.00 | 54 | 1013.6 |
| 20260504022519 | 12 | 190 | 3.2 | 11.3 | 0.00 | 0.00 | 0.00 | 54 | 1013.6 |
| 20260504022018 | 12 | 178 | 4.8 | 11.3 | 0.00 | 0.00 | 0.00 | 55 | 1013.6 |
| 20260504021544 | 12 | 212 | 4.8 | 11.3 | 0.00 | 0.00 | 0.00 | 55 | 1013.6 |
| 20260504021018 | 12 | 218 | 3.2 | 9.7 | 0.00 | 0.00 | 0.00 | 55 | 1013.7 |
| 20260504020519 | 12 | 153 | 3.2 | 9.7 | 0.00 | 0.00 | 0.00 | 55 | 1013.7 |
| 20260504020038 | 12 | 218 | 3.2 | 6.4 | 0.00 | 0.00 | 0.00 | 55 | 1013.6 |
| 20260504015519 | 12 | 178 | 1.6 | 6.4 | 0.00 | 0.00 | 0.00 | 55 | 1013.6 |
| 20260504015020 | 12 | 171 | 1.6 | 8.0 | 0.00 | 0.00 | 0.00 | 55 | 1013.5 |
| 20260504014536 | 12 | 153 | 3.2 | 8.0 | 0.00 | 0.00 | 0.00 | 56 | 1013.4 |
| 20260504014018 | 12 | 160 | 3.2 | 8.0 | 0.00 | 0.00 | 0.00 | 56 | 1013.3 |
| 20260504013518 | 12 | 178 | 1.6 | 8.0 | 0.00 | 0.00 | 0.00 | 56 | 1013.3 |
| 20260504013037 | 12 | 111 | 3.2 | 9.7 | 0.00 | 0.00 | 0.00 | 56 | 1013.3 |
| 20260504012518 | 12 | 157 | 1.6 | 9.7 | 0.00 | 0.00 | 0.00 | 57 | 1013.3 |
| 20260504012019 | 12 | 146 | 3.2 | 8.0 | 0.00 | 0.00 | 0.00 | 57 | 1013.3 |
| 20260504011536 | 12 | 126 | 3.2 | 8.0 | 0.00 | 0.00 | 0.00 | 57 | 1013.3 |
| 20260504011021 | 13 | 169 | 1.6 | 8.0 | 0.00 | 0.00 | 0.00 | 55 | 1013.3 |